User: anonymous   Login
Location: Gollag?dem
(16.8053°N, 80.8024°E)
Time: 09:52:06
(UTC+00:00)
Language:

CZ-2C R/B - Orbit

View from above orbital plane
View from above orbital plane
View from above satellite
View from above satellite

Ground track
Ground track

The orbit data is extracted from the following two-line orbital elements,

1 28480U 04046B   20299.95093812 +.00000014 +00000-0 +20323-4 0  9994
2 28480 098.0679 324.7141 0141550 198.1685 223.1959 14.25730025829019
Epoch (UTC): 25 October 2020 22:49:21
Eccentricity: 0.0141550
inclination: 98.0679°
perigee height: 704 km
apogee height: 908 km
right ascension of ascending node: 324.7141°
argument of perigee: 198.1685°
revolutions per day: 14.25730025
mean anomaly at epoch: 223.1959°
orbit number at epoch: 82901

The dashed part of the orbit path shows where the satellite is in the earth's shadow,  

DLR